Bartow, FL

9:49 PM EDT on July 24, 2017 (GMT -0400)
Bartow Municipal

Weather History for KBOW - January, 2012

Change the Weather History Date:

Tuesday, January 31, 2012

  Actual Average Record
Temperature  
Mean Temperature 63 °F -  
Max Temperature 75 °F 75 °F 86 °F (1932)
Min Temperature 51 °F 50 °F 27 °F (1966)
Degree Days  
Heating Degree Days 2    
Growing Degree Days 13 (Base 50)    
Moisture  
Dew Point 50 °F    
Average Humidity 69    
Maximum Humidity 88    
Minimum Humidity 36    
Precipitation  
Precipitation 0.00 in - - ()
Sea Level Pressure  
Sea Level Pressure 30.32 in    
Wind  
Wind Speed 7 mph (ENE)    
Max Wind Speed 14 mph    
Max Gust Speed 21 mph    
Visibility 10 miles    
Events      
Averages and records for this station are not official NWS values.
T = Trace of Precipitation, MM = Missing Value Source: NWS Daily Summary

Daily Weather History Graph

Daily Weather History Graph

Search for Another Location

Airport or City:

Trip Planner

Search our weather history database for the weather conditions in past years. The results will help you decide how hot, cold, wet, or windy it might be!

Date:

Astronomy

Jan. 31, 2012 Rise Set
Actual Time 7:14 AM EST 6:06 PM EST
Civil Twilight 6:50 AM EST 6:31 PM EST
Nautical Twilight 6:22 AM EST 6:59 PM EST
Astronomical Twilight 5:54 AM EST 7:26 PM EST
Moon 11:59 AM EST (1/31) 12:59 AM EST (1/31)
Length of Visible Light 11h 40m
Length of Day
10h 51m
First Quarter, 55% of the Moon is Illuminated
Jan 31
First Quarter
Feb 7
Full
Feb 14
Last Quarter
Feb 21
New
Feb 29
First Quarter

Hourly Weather History & Observations

Time (EST) Temp. Dew Point Humidity Pressure Visibility Wind Dir Wind Speed Gust Speed Precip Events Conditions
12:15 AM 55.4 °F 46.4 °F 72% 30.36 in 10.0 mi NE 4.6 mph - N/A   Clear
12:35 AM 55.4 °F 46.4 °F 72% 30.35 in 10.0 mi NE 5.8 mph - N/A   Clear
12:55 AM 55.4 °F 48.2 °F 77% 30.34 in 10.0 mi NE 6.9 mph - N/A   Clear
1:15 AM 53.6 °F 48.2 °F 82% 30.34 in 10.0 mi NE 5.8 mph - N/A   Partly Cloudy
1:35 AM 53.6 °F 48.2 °F 82% 30.34 in 10.0 mi NE 4.6 mph - N/A   Partly Cloudy
1:55 AM 53.6 °F 48.2 °F 82% 30.34 in 10.0 mi NE 5.8 mph - N/A   Clear
2:15 AM 53.6 °F 48.2 °F 82% 30.33 in 10.0 mi NE 6.9 mph - N/A   Clear
2:35 AM 53.6 °F 48.2 °F 82% 30.34 in 10.0 mi NNE 5.8 mph - N/A   Clear
2:55 AM 53.6 °F 48.2 °F 82% 30.33 in 10.0 mi NNE 6.9 mph - N/A   Clear
3:15 AM 53.6 °F 48.2 °F 82% 30.32 in 10.0 mi NE 6.9 mph - N/A   Clear
3:35 AM 55.4 °F 48.2 °F 77% 30.33 in 10.0 mi NNE 6.9 mph - N/A   Clear
3:55 AM 53.6 °F 48.2 °F 82% 30.33 in 10.0 mi NE 5.8 mph - N/A   Clear
4:15 AM 53.6 °F 48.2 °F 82% 30.33 in 10.0 mi NE 5.8 mph - N/A   Clear
4:35 AM 53.6 °F 48.2 °F 82% 30.34 in 10.0 mi NE 5.8 mph - N/A   Clear
4:55 AM 53.6 °F 48.2 °F 82% 30.33 in 10.0 mi NE 5.8 mph - N/A   Partly Cloudy
5:15 AM 53.6 °F 48.2 °F 82% 30.34 in 10.0 mi NNE 6.9 mph - N/A   Scattered Clouds
5:35 AM 53.6 °F 48.2 °F 82% 30.34 in 10.0 mi NE 8.1 mph - N/A   Scattered Clouds
5:55 AM 53.6 °F 48.2 °F 82% 30.35 in 10.0 mi NE 6.9 mph - N/A   Scattered Clouds
6:15 AM 51.8 °F 48.2 °F 88% 30.34 in 10.0 mi NE 6.9 mph - N/A   Scattered Clouds
6:35 AM 53.6 °F 50.0 °F 88% 30.33 in 10.0 mi ENE 8.1 mph - N/A   Clear
6:55 AM 53.6 °F 50.0 °F 88% 30.34 in 10.0 mi NE 5.8 mph - N/A   Clear
7:15 AM 55.4 °F 50.0 °F 82% 30.35 in 10.0 mi NE 6.9 mph - N/A   Clear
7:30 AM 55.4 °F 50.0 °F 82% 30.35 in 12.0 mi ENE 5.8 mph - N/A   Mostly Cloudy
7:51 AM 57.2 °F 51.8 °F 82% 30.36 in 12.0 mi ENE 5.8 mph - N/A   Mostly Cloudy
8:55 AM 60.8 °F 51.8 °F 72% 30.38 in 15.0 mi ENE 8.1 mph - N/A   Scattered Clouds
9:54 AM 66.2 °F 51.8 °F 60% 30.38 in 15.0 mi ENE 9.2 mph - N/A   Partly Cloudy
10:52 AM 69.8 °F 51.8 °F 53% 30.38 in 15.0 mi East 13.8 mph 20.7 mph N/A   Scattered Clouds
1:50 PM 73.4 °F 48.2 °F 41% 30.29 in 15.0 mi ESE 9.2 mph 17.3 mph N/A   Scattered Clouds
2:51 PM 75.2 °F 46.4 °F 36% 30.27 in 15.0 mi ESE 11.5 mph - N/A   Mostly Cloudy
3:35 PM 75.2 °F 46.4 °F 36% 30.26 in 9.0 mi East 6.9 mph - N/A   Clear
3:55 PM 75.2 °F 48.2 °F 38% 30.26 in 10.0 mi ENE 10.4 mph - N/A   Clear
4:15 PM 75.2 °F 46.4 °F 36% 30.26 in 10.0 mi East 10.4 mph - N/A   Clear
4:35 PM 73.4 °F 48.2 °F 41% 30.27 in 10.0 mi East 9.2 mph - N/A   Clear
4:55 PM 73.4 °F 48.2 °F 41% 30.27 in 10.0 mi East 12.7 mph - N/A   Clear
5:15 PM 73.4 °F 48.2 °F 41% 30.27 in 10.0 mi East 8.1 mph - N/A   Clear
5:35 PM 71.6 °F 48.2 °F 43% 30.27 in 10.0 mi East 9.2 mph - N/A   Partly Cloudy
5:55 PM 69.8 °F 50.0 °F 49% 30.28 in 10.0 mi East 8.1 mph - N/A   Partly Cloudy
6:15 PM 68.0 °F 50.0 °F 52% 30.28 in 10.0 mi East 8.1 mph - N/A   Clear
6:35 PM 68.0 °F 51.8 °F 56% 30.29 in 10.0 mi East 6.9 mph - N/A   Clear
6:55 PM 66.2 °F 51.8 °F 60% 30.29 in 10.0 mi East 8.1 mph - N/A   Clear
7:15 PM 66.2 °F 51.8 °F 60% 30.29 in 10.0 mi East 6.9 mph - N/A   Clear
7:35 PM 64.4 °F 51.8 °F 64% 30.30 in 10.0 mi East 6.9 mph - N/A   Clear
7:55 PM 64.4 °F 51.8 °F 64% 30.31 in 10.0 mi East 6.9 mph - N/A   Clear
8:15 PM 64.4 °F 51.8 °F 64% 30.31 in 10.0 mi East 6.9 mph - N/A   Clear
8:35 PM 62.6 °F 51.8 °F 68% 30.31 in 10.0 mi East 8.1 mph - N/A   Clear
8:55 PM 62.6 °F 53.6 °F 72% 30.31 in 10.0 mi East 6.9 mph - N/A   Clear
9:15 PM 62.6 °F 53.6 °F 72% 30.31 in 10.0 mi ENE 8.1 mph - N/A   Clear
9:35 PM 62.6 °F 53.6 °F 72% 30.31 in 10.0 mi East 5.8 mph - N/A   Clear
9:55 PM 60.8 °F 53.6 °F 77% 30.30 in 10.0 mi East 6.9 mph - N/A   Clear
10:15 PM 60.8 °F 51.8 °F 72% 30.30 in 10.0 mi ENE 5.8 mph - N/A   Clear
10:35 PM 60.8 °F 53.6 °F 77% 30.31 in 10.0 mi ENE 6.9 mph - N/A   Clear
10:55 PM 60.8 °F 53.6 °F 77% 30.31 in 10.0 mi ENE 8.1 mph - N/A   Clear
11:15 PM 60.8 °F 53.6 °F 77% 30.30 in 10.0 mi ENE 6.9 mph - N/A   Clear
11:35 PM 60.8 °F 53.6 °F 77% 30.30 in 10.0 mi East 6.9 mph - N/A   Clear
11:55 PM 60.8 °F 53.6 °F 77% 30.30 in 10.0 mi ENE 5.8 mph - N/A   Clear